Terug naar catalogus

CZ-4 DEB

ActiefPO
NORAD 26127·DEBRIS·🇨🇳 China

Gelanceerd Oct 14, 1999 vanaf Taiyuan Satellite Launch Center

Loading…

Volgende Passages (komende 24 uur)

TLE

VersSource: Space-Track

Epoch: Sep 13, 2026, 11:21 UTC

1 26127U 99057P   26256.47294095  .00013128  00000-0  11451-2 0  9998
2 26127  98.4566  78.0706 0050891 162.2529 252.6811 14.95987163397913

Volg CZ-4 DEB in realtime met AllMySat

Download on the App Store